Simultaneous Nadir Overpasses (SNOs) Predictions

Prediction of SNOs between AQUA and GOES-15 Satellite Orbit:

Table of predicted SNOs for the next 14.0 days since TLE Epoch: 12/22/2017
Index Date Time (AQUA) AQUA Lat,Lon GOES-15 Lat,Lon Distance(km) Time Diff (sec)
1 12/23/2017 10:38:04 0.03,-135.60 -0.04,-135.38 26.26 80
2 12/25/2017 10:25:54 -0.61,-132.65 -0.04,-135.35 306.59 80
3 12/25/2017 22:47:17 -0.50,-137.84 0.05,-135.27 292.44 80
4 12/27/2017 22:35:07 0.15,-134.89 0.05,-135.23 39.70 80
5 12/29/2017 22:22:57 0.73,-131.92 0.04,-135.18 370.91 80
6 12/30/2017 10:44:13 0.32,-137.09 -0.05,-135.24 209.71 80
7 01/01/2018 10:32:02 -0.28,-134.13 -0.04,-135.18 120.59 80
8 01/01/2018 22:53:26 -0.83,-139.32 0.05,-135.10 478.59 80
9 01/03/2018 10:19:51 -0.88,-131.16 -0.03,-135.12 450.23 80
10 01/03/2018 22:41:15 -0.23,-136.35 0.04,-135.04 149.12 80




NCC Satellite Simultaneous Nadir Overpasses (SNOs) Prediction Service
